Home   Weather   French Lick   Past weeks
Flag for USA

Past Weather in French Lick, Indiana, USA — Yesterday and Last 2 Weeks

Now
75 °F

Clear.


Feels Like: 75 °F
Forecast: 84 / 71 °F
Wind: 9 mph from South

Location: Huntingburg Airport

Current Time: May 23, 2019 at 5:12:51 am

Latest Report: May 23, 2019 at 3:56 am


Visibility: 10 mi

Pressure: 30.03 "Hg

Humidity: 82%

Dew Point: 69 °F

Location of French LickLocation

Past Weather in French Lick — Graph

°F

French Lick Temperature Yesterday

Maximum temperature yesterday: 81 °F (at 5:56 pm)
Minimum temperature yesterday: 64 °F (at 9:56 am)
Average temperature yesterday: 71 °F

High & Low Weather Summary for the Past Weeks

 TemperatureHumidityPressure
High88 °F (May 18, 3:56 pm)100% (May 11, 5:35 pm)30.16 "Hg (May 11, 5:35 pm)
Low41 °F (May 14, 6:56 am)38% (May 14, 4:56 pm)29.75 "Hg (May 9, 4:56 am)
Average64 °F79%29.93 "Hg
* Reported May 8 3:36 am — May 23 3:56 am, French Lick. Weather by CustomWeather, © 2019

Note: Actual official high and low records may vary slightly from our data, if they occured in-between our weather recording intervals... More about our weather records

Advertising

French Lick Weather History for the Previous 24 Hours

Scroll right to see more
 ConditionsComfort  
Time TempWeatherWind HumidityBarometerVisibility
3:56 am
Thu, May 23
75 °FClear.9 mph82%30.03 "Hg10 mi
2:56 am75 °FPassing clouds.10 mph85%30.02 "Hg10 mi
1:56 am74 °FPassing clouds.7 mph88%30.01 "Hg10 mi
12:56 am75 °FMostly cloudy.5 mph88%30.02 "Hg10 mi
11:56 pm
Wed, May 22
75 °FPartly cloudy.5 mph88%30.01 "Hg10 mi
10:56 pm74 °FClear.3 mph88%30.01 "Hg10 mi
9:56 pm75 °FClear.5 mph82%30.00 "Hg10 mi
8:56 pm75 °FSunny.5 mph85%30.00 "Hg10 mi
7:56 pm80 °FSunny.5 mph71%29.99 "Hg10 mi
6:56 pm80 °FSunny.9 mph67%29.98 "Hg10 mi
5:56 pm81 °FScattered clouds.10 mph65%29.98 "Hg10 mi
4:56 pm79 °FScattered clouds.12 mph72%29.98 "Hg10 mi
3:56 pm79 °FPartly sunny.14 mph74%29.97 "Hg10 mi
2:56 pm75 °FCloudy.14 mph79%29.98 "Hg10 mi
1:56 pm70 °FMostly cloudy.10 mph87%29.99 "Hg10 mi
12:56 pm69 °FMostly cloudy.7 mph87%29.98 "Hg10 mi
12:05 pm66 °FLight rain. Mostly cloudy.7 mph94%30.01 "Hg10 mi
11:28 am64 °FMostly cloudy.No wind94%30.02 "Hg10 mi
10:56 am65 °FLight rain. Mostly cloudy.3 mph94%29.99 "Hg9 mi
10:14 am64 °FLight rain. Overcast.3 mph94%30.00 "Hg10 mi
9:56 am64 °FLight rain. Overcast.3 mph94%29.99 "Hg9 mi
8:56 am65 °FOvercast.6 mph87%29.93 "Hg10 mi
7:56 am65 °FMostly cloudy.6 mph87%29.93 "Hg10 mi
6:56 am65 °FOvercast.5 mph91%29.93 "Hg10 mi
5:56 am66 °FOvercast.5 mph84%29.88 "Hg10 mi
Weather by CustomWeather, © 2019

See weather overview